Regional Weather Roundup
Issued by NWS

Home | Current Version | Previous Version | Graphics & Text | Print | Product List | Glossary On
Versions: 1 2 3 4 5 6 7 8 9 10 11 12 13 14 15 16 17 18 19 20 21 22 23 24 25 26 27 28 29 30 31 32 33 34 35 36 37 38 39 40 41 42 43 44 45 46 47 48 49 50
000
ASUS45 KCYS 301810
RWRWY

WYOMING REGIONAL WEATHER ROUNDUP
NATIONAL WEATHER SERVICE CHEYENNE WY
1200 PM MDT WED JUL 30 2014

NOTE:  "FAIR" INDICATES FEW OR NO CLOUDS BELOW 12,000 FEET
WITH NO SIGNIFICANT WEATHER AND/OR OBSTRUCTIONS TO VISIBILITY.

WYZ001-301900-
YELLOWSTONE NATIONAL PARK

CITY           SKY/WX    TMP DP  RH WIND       PRES   REMARKS
LK YELLOWSTONE   N/A     64  35  34 SE3       30.48F
6HR MIN TEMP:  39; 6HR MAX TEMP:  66;

W YELLOWSTONE  NOT AVBL

$$
WYZ002>013-054>058-071-098>099-301900-
NORTHERN WYOMING

CITY           SKY/WX    TMP DP  RH WIND       PRES   REMARKS
JACKSON        SUNNY     68  43  40 NW10      30.37S
CODY           NOT AVBL
GREYBULL       MOSUNNY   77  52  41 CALM      30.26F
6HR MIN TEMP:  54; 6HR MAX TEMP:  78;

WORLAND        MOSUNNY   74  54  49 W5        30.28F
6HR MIN TEMP:  54; 6HR MAX TEMP:  74;

SHERIDAN       MOSUNNY   83  41  22 VRB6      30.26F
6HR MIN TEMP:  49; 6HR MAX TEMP:  83;

BUFFALO        MOSUNNY   79  38  22 NE6       30.32S
6HR MIN TEMP:  56; 6HR MAX TEMP:  80;

GILLETTE       MOSUNNY   78  42  27 NE9       30.27S
6HR MIN TEMP:  57; 6HR MAX TEMP:  79;

HULETT         FAIR      75  50  41 MISG      30.27
NEWCASTLE      FAIR      75  46  35 W8        30.26

$$
WYZ014>020-022>026-101>103-301900-
CENTRAL WYOMING

CITY           SKY/WX    TMP DP  RH WIND       PRES   REMARKS
BIG PINEY      LGT RAIN  56  53  90 NW12      30.44R
6HR MIN TEMP:  54; 6HR MAX TEMP:  56; 6HR PCP: TRACE;

PINEDALE       CLOUDY    59  50  72 W9        30.43R
DUBOIS         FAIR      64  39  39 E14G21    30.44S
LANDER         PTSUNNY   67  54  63 N5        30.36S
6HR MIN TEMP:  57; 6HR MAX TEMP:  67;

RIVERTON       MOSUNNY   69  52  54 NW7       30.36S
6HR MIN TEMP:  56; 6HR MAX TEMP:  70;

CASPER         MOSUNNY   70  48  45 VRB3      30.33F
6HR MIN TEMP:  53; 6HR MAX TEMP:  70;

DOUGLAS        PTSUNNY   71  53  52 VRB3      30.33F
6HR MIN TEMP:  53; 6HR MAX TEMP:  71;


$$
WYZ021-027>030-104>119-301900-
SOUTHERN WYOMING

CITY           SKY/WX    TMP DP  RH WIND       PRES   REMARKS
EVANSTON       CLOUDY    57  54  89 NE12      30.39S
6HR MIN TEMP:  54; 6HR MAX TEMP:  57; 6HR PCP:  0.05;

KEMMERER       LGT RAIN  54  52  94 E15       30.46S
FORT BRIDGER   CLOUDY    57  57 100 NE14      30.42S
ROCK SPRINGS   CLOUDY    61  51  70 E17       30.38R
6HR MIN TEMP:  56; 6HR MAX TEMP:  61; 6HR PCP: TRACE;

DIXON          MOCLDY    68  54  61 E5        30.33F
RAWLINS        CLOUDY    61  51  70 E16G24    30.38S
6HR MIN TEMP:  53; 6HR MAX TEMP:  62; 6HR PCP:  0.02;

SARATOGA       RAIN      59  52  77 CALM      30.38S
LARAMIE        LGT RAIN  56  53  90 E5        30.41S
6HR MIN TEMP:  53; 6HR MAX TEMP:  55; 6HR PCP:  0.16;

CHEYENNE       LGT RAIN  57  54  89 E3        30.38S
6HR MIN TEMP:  56; 6HR MAX TEMP:  58; 6HR PCP:  0.14;

TORRINGTON     CLOUDY    70  56  61 VRB3      30.27F
6HR MIN TEMP:  60; 6HR MAX TEMP:  70;

PINE BLUFFS    CLOUDY    64  55  72 NE10      30.33S

$$



USA.gov is the U.S. government's official web portal to all federal, state and local government web resources and services.